Flag for U.S.A. Weather past 2 weeks in Spartanburg, South Carolina, U.S.A.

Now
50 °F

Light rain. Mostly cloudy.


Feels Like: 46 °F
Forecast: 50 / 61 °F
Wind: 10 mph from Northeast

Location: Spartanburg Memorial


UV Index: 0 (Low)

Visibility: 7 mi


Pressure: 30.21 "Hg

Humidity: 100%

Dew point: 50 °F

Location of SpartanburgLocation

Historic Weather in Spartanburg

°F

Spartanburg temperature yesterday

Maximum temperature yesterday: 66 °F (at 4:35 PM)
Minimum temperature yesterday: 37 °F (at 4:55 AM)
Average temperature yesterday: 51 °F

Past Weeks' High & Low Weather Summary

 TemperatureHumidityPressure
High84 °F (Apr 4, 4:15 PM)100% (Apr 7, 4:15 AM)30.52 "Hg (Apr 7, 4:15 AM)
Low34 °F (Apr 16, 6:15 AM)16% (Apr 5, 6:15 PM)29.62 "Hg (Apr 8, 4:35 AM)
Average60 °F61%30.08 "Hg
* Reported Apr 3 8:15 PM — Apr 18 8:55 PM, Spartanburg, Weather by CustomWeather, © 2014

Note: Actual official high and low records may vary slightly from our data, if they occured in-between our weather recording intervals... More about our weather records

Advertising

Historic Weather Conditions — Data for Previous 24 hours

 ConditionsComfort  
Time TempWeatherWind HumidityBarometerVisibility
8:55 PM
Apr 18
50 °FRain. Cloudy.8 mph100%30.22 "Hg7 mi
8:35 PM50 °FRain. Mostly cloudy.6 mph100%30.23 "Hg7 mi
8:15 PM50 °FRain. Mostly cloudy.6 mph100%30.23 "Hg7 mi
7:55 PM50 °FRain. Mostly cloudy.6 mph100%30.23 "Hg7 mi
7:35 PM52 °FRain. More clouds than sun.8 mph94%30.23 "Hg7 mi
7:15 PM52 °FRain. Mostly cloudy.10 mph94%30.23 "Hg7 mi
6:55 PM52 °FRain. More clouds than sun.9 mph88%30.24 "Hg10 mi
6:35 PM52 °FRain. Cloudy.7 mph88%30.24 "Hg10 mi
6:15 PM52 °FRain. Broken clouds.7 mph82%30.25 "Hg10 mi
5:55 PM54 °FLight rain. Broken clouds.9 mph77%30.24 "Hg10 mi
5:35 PM54 °FLight rain. Scattered clouds.6 mph77%30.25 "Hg10 mi
5:15 PM55 °FRain. Sunny.6 mph67%30.25 "Hg10 mi
4:55 PM55 °FLight rain. Sunny.7 mph67%30.24 "Hg10 mi
4:35 PM55 °FSunny.8 mph63%30.24 "Hg10 mi
4:15 PM55 °FSunny.7 mph59%30.25 "Hg10 mi
3:55 PM55 °FSunny.13 mph63%30.25 "Hg10 mi
3:35 PM55 °FSunny.8 mph63%30.26 "Hg10 mi
3:15 PM55 °FSunny.8 mph63%30.28 "Hg10 mi
2:55 PM55 °FSunny.12 mph63%30.29 "Hg10 mi
2:35 PM55 °FSunny.7 mph63%30.30 "Hg10 mi
2:15 PM55 °FSunny.7 mph63%30.31 "Hg10 mi
1:55 PM55 °FSunny.9 mph63%30.32 "Hg10 mi
1:35 PM55 °FSunny.7 mph63%30.34 "Hg10 mi
1:15 PM55 °FSunny.9 mph63%30.34 "Hg10 mi
12:55 PM55 °FSunny.8 mph63%30.36 "Hg10 mi
12:35 PM55 °FSunny.9 mph63%30.37 "Hg10 mi
12:15 PM54 °FSunny.5 mph67%30.39 "Hg10 mi
11:55 AM54 °FSunny.9 mph67%30.38 "Hg10 mi
11:35 AM52 °FSunny.8 mph72%30.39 "Hg10 mi
11:15 AM52 °FSunny.10 mph72%30.39 "Hg10 mi
10:55 AM52 °FSunny.9 mph67%30.39 "Hg10 mi
10:35 AM52 °FSunny.5 mph67%30.41 "Hg10 mi
10:15 AM52 °FSunny.8 mph67%30.40 "Hg10 mi
9:55 AM52 °FSunny.8 mph72%30.40 "Hg10 mi
9:35 AM52 °FSunny.8 mph67%30.40 "Hg10 mi
9:15 AM50 °FSunny.7 mph71%30.39 "Hg10 mi
8:55 AM50 °FSunny.9 mph71%30.38 "Hg10 mi
8:35 AM50 °FSunny.8 mph67%30.38 "Hg10 mi
8:15 AM50 °FSunny.7 mph62%30.38 "Hg10 mi
7:55 AM48 °FSunny.7 mph66%30.37 "Hg10 mi
7:35 AM48 °FClear.6 mph66%30.37 "Hg10 mi
6:55 AM48 °FClear.6 mph66%30.36 "Hg10 mi
6:35 AM48 °FClear.7 mph66%30.36 "Hg10 mi
6:15 AM48 °FClear.7 mph62%30.36 "Hg10 mi
5:55 AM48 °FClear.6 mph62%30.37 "Hg10 mi
5:35 AM48 °FClear.6 mph62%30.37 "Hg10 mi
5:15 AM48 °FClear.7 mph62%30.35 "Hg10 mi
4:55 AM48 °FClear.7 mph62%30.35 "Hg10 mi
4:35 AM50 °FClear.6 mph58%30.36 "Hg10 mi
4:15 AM50 °FClear.5 mph58%30.36 "Hg10 mi
3:55 AM50 °FClear.7 mph58%30.35 "Hg10 mi
3:35 AM50 °FClear.6 mph58%30.36 "Hg10 mi
3:15 AM50 °FClear.5 mph58%30.37 "Hg10 mi
2:55 AM50 °FClear.6 mph58%30.37 "Hg10 mi
2:35 AM50 °FClear.6 mph54%30.36 "Hg10 mi
2:15 AM50 °FClear.7 mph54%30.37 "Hg10 mi
1:55 AM50 °FClear.6 mph54%30.38 "Hg10 mi
1:35 AM50 °FClear.5 mph58%30.39 "Hg10 mi
12:55 AM52 °FClear.8 mph54%30.38 "Hg10 mi
12:35 AM52 °FClear.7 mph54%30.39 "Hg10 mi
12:15 AM52 °FClear.7 mph54%30.39 "Hg10 mi
11:55 PM
Apr 17
50 °FClear.6 mph58%30.39 "Hg10 mi
11:35 PM50 °FClear.6 mph58%30.40 "Hg10 mi
11:15 PM50 °FClear.5 mph58%30.41 "Hg10 mi
10:55 PM52 °FClear.3 mph54%30.41 "Hg10 mi
10:35 PM50 °FClear.5 mph58%30.42 "Hg10 mi
10:15 PM50 °FClear.5 mph58%30.41 "Hg10 mi
Weather by CustomWeather, © 2014

See weather overview